User: anonymous   Login
Location: Dover
(39.1580°N, 75.5250°W)
Time: 12:52:44
(UTC-04:00)
Language:

SeaSat 1 - Orbit

View from above orbital plane
View from above orbital plane
View from above satellite
View from above satellite

Ground track
Ground track

The orbit data is extracted from the following two-line orbital elements,

1 10967U 78064A   16274.20237104 -.00000022  00000-0  34014-4 0  9998
2 10967 108.0072 116.2329 0002635 288.1118  71.9739 14.43583235  9083
Epoch (UTC): 30 September 2016 04:51:24
Eccentricity: 0.0002635
inclination: 108.0072°
perigee height: 745 km
apogee height: 748 km
right ascension of ascending node: 116.2329°
argument of perigee: 288.1118°
revolutions per day: 14.43583235
mean anomaly at epoch: 71.9739°
orbit number at epoch: 908

The dashed part of the orbit path shows where the satellite is in the earth's shadow,  

DLR